Regional Weather Roundup
Issued by NWS Kansas City/Pleasant Hill, MO

Home | Current Version | Previous Version | Graphics & Text | Print | Product List | Glossary Off
Versions: 1 2 3 4 5 6 7 8 9 10 11 12 13 14 15 16 17 18 19 20 21 22 23 24 25 26 27 28 29 30 31 32 33 34 35 36 37 38 39 40 41 42 43 44 45 46 47 48 49 50

680
ASUS43 KEAX 200210
RWREAX

WEATHER ROUNDUP FOR EASTERN KANSAS AND NORTHWEST MISSOURI
NATIONAL WEATHER SERVICE KANSAS CITY/PLEASANT HILL MO
800 PM CST THU JAN 19 2017

KSZ040-057-103>105-MOZ028-029-037-043-200300-
...KANSAS CITY METROPOLITAN AREA...

CITY           SKY/WX    TMP DP  RH WIND       PRES   REMARKS
K.C. INTL      CLOUDY    47  43  86 CALM      29.64R
K.C. DOWNTOWN  CLOUDY    49  46  90 E3        29.64S
LEES SUMMIT    CLOUDY    47  46  97 E5        29.64S
OLATHE - IXD   CLOUDY    47  45  93 E3        29.64S
OLATHE - OJC   CLOUDY    46  46 100 CALM      29.63F
LAWRENCE       CLOUDY    45  45 100 CALM      29.64S FOG

$$

MOZ001>008-011>017-020>025-030>033-038>040-044>046-053-054-200300-
...NORTHERN AND CENTRAL MISSOURI...

CITY           SKY/WX    TMP DP  RH WIND       PRES   REMARKS
ST. JOSEPH     CLOUDY    45  45 100 CALM      29.66R FOG
MOSBY          CLOUDY    46  46 100 CALM      29.65R FOG
WARRENSBURG    CLOUDY    46  46 100 CALM      29.64S FOG
WHITEMAN AFB   CLOUDY    48  48 100 CALM      29.63S FOG
CLINTON        FOG       48  48 100 E5        29.64F VSB 1/4
SEDALIA        FOG       48  48 100 E3        29.65F VSB 1/2
WARSAW         NOT AVBL
CHILLICOTHE      N/A     45  45 100 E3        29.67S
KIRKSVILLE     FOG       43  43 100 E5        29.67F VSB 1/4

$$

MOZ041-047>049-056>058-063>065-088>090-097-200300-
...EASTERN AND SOUTHERN MISSOURI...

CITY           SKY/WX    TMP DP  RH WIND       PRES   REMARKS
ST. LOUIS INTL FOG       47  46  97 E7        29.66F VSB 1/4
SPIRIT OF STL  FOG       46  46 100 CALM      29.66F VSB 1/4
COLUMBIA       FOG       47  47 100 E6        29.65F VSB<1/4
JEFFERSON CITY CLOUDY    48  47  96 E3        29.65F FOG
ROLLA          FOG       48  48 100 E7        29.64S VSB 1/4
OSAGE BEACH    LGT RAIN  48  48 100 NE5       29.64F VSB 3/4
SPRINGFIELD    CLOUDY    51  49  92 SE9       29.60F
BRANSON        PTCLDY    46  46 100 SE7       29.63F
JOPLIN         CLOUDY    50  48  93 SW8       29.63R
WEST PLAINS    FOG       49  48  97 S6        29.67F VSB 1/4

$$

IAZ060-094-KSZ022-034>040-054-083-096-NEZ052-066-093-200300-
...KANSAS...SOUTHEAST NEBRASKA AND IOWA...

CITY           SKY/WX    TMP DP  RH WIND       PRES   REMARKS
TOPEKA         LGT RAIN  46  43  89 E5        29.63F FOG
MANHATTAN      CLOUDY    45  44  97 CALM      29.63F FOG
EMPORIA        CLOUDY    45  45 100 CALM      29.62S FOG
CHANUTE        CLOUDY    49  45  86 CALM      29.63R
WICHITA        CLOUDY    47  44  90 E7        29.59S
OMAHA          FOG       39  35  86 NW3       29.67R VSB 1/4
LINCOLN        FOG       39  39 100 NE3       29.67R VSB 3/4
FALLS CITY     FOG       42  42 100 E5        29.64F VSB 1/4
LAMONI         FOG       41  40  96 E5        29.67R VSB 1/4
DES MOINES     DRZL/FOG  38  37  97 E5        29.69S VSB 1/2 WCI  34

$$





USA.gov is the U.S. government's official web portal to all federal, state and local government web resources and services.